Regional Weather Roundup
Issued by NWS Charleston, WV

Home | Current Version | Previous Version | Graphics & Text | Print | Product List | Glossary On
Versions: 1 2 3 4 5 6 7 8 9 10 11 12 13 14 15 16 17 18 19 20 21 22 23 24 25 26 27 28 29 30 31 32 33 34 35 36 37 38 39 40 41 42 43 44 45 46 47 48 49 50
000
ASUS41 KRLX 301410
RWRRLX
West Virginia Regional Weather Roundup
National Weather Service Charleston WV
900 AM EST FRI JAN 30 2015

Note: "fair" indicates few or no clouds below 12,000 feet with no
significant weather and/or obstructions to visibility.

WVZ003-301500-
Northern Panhandle of West Virginia

CITY           SKY/WX    TMP DP  RH WIND       PRES   REMARKS
WHEELING       CLOUDY    23  16  74 NW17G24   30.18R WCI   9
$$

WVZ009-301500-
Northwest West Virginia

CITY           SKY/WX    TMP DP  RH WIND       PRES   REMARKS
PARKERSBURG    PTSUNNY   26  17  68 NW17G28   30.28R
$$

WVZ006-301500-
Western West Virginia

CITY           SKY/WX    TMP DP  RH WIND       PRES   REMARKS
HUNTINGTON     CLOUDY    30  24  78 NW12G21   30.28R
$$

WVZ015-301500-
West Central West Virginia

CITY           SKY/WX    TMP DP  RH WIND       PRES   REMARKS
CHARLESTON     PTSUNNY   31  22  69 NW15      30.24R
$$

WVZ022-031-301500-
North Central West Virginia

CITY           SKY/WX    TMP DP  RH WIND       PRES   REMARKS
CLARKSBURG     FLURRIES  28  22  78 NW13      30.14R
MORGANTOWN     CLOUDY    27  15  61 NW8G17    30.14R
$$

WVZ025-035-042-045-301500-
Southern West Virginia

CITY           SKY/WX    TMP DP  RH WIND       PRES   REMARKS
BECKLEY        SNOW      26  22  84 NW13      30.11S VSB 1/2
LOGAN          SNOW      28  27  93 NW9G23    30.21R VSB<1/4
BLUEFIELD      LGT SNOW  27  20  75 NW17G25   30.10R
LEWISBURG      CLOUDY    30  22  73 W7G18     30.08R
$$

WVZ047-301500-
Northern Mountains of West Virginia

CITY           SKY/WX    TMP DP  RH WIND       PRES   REMARKS
ELKINS         LGT SNOW  26  23  88 NW15      30.07R VSB 3/4
$$

WVZ052-301500-
Eastern Panhandle of West Virginia

CITY           SKY/WX    TMP DP  RH WIND       PRES   REMARKS
MARTINSBURG    SNOW      34  28  79 NW12      30.04R VSB 1/2
PETERSBURG     CLOUDY    33  17  52 NW12G24   30.08R
$$


USA.gov is the U.S. government's official web portal to all federal, state and local government web resources and services.